Location: Dover
(39.1580°N, 75.5250°W)
Time: 15:50:08
(UTC-04:00)

SeaSat 1 - Visible Passes

Search period start: 03 June 2015 00:00
Search period end: 13 June 2015 00:00
Orbit: 746 x 748 km, 108.0° (Epoch: 02 June)

Date Brightness Start Highest point End Pass type
(mag) Time Alt. Az. Time Alt. Az. Time Alt. Az.
04 Jun 5.3 21:12:35 10° WSW 21:13:51 11° W 21:14:45 10° W visible
09 Jun 4.5 20:55:43 10° SSW 20:59:45 25° WSW 21:03:43 10° NW visible
11 Jun 4.6 21:10:01 10° SSW 21:13:51 22° WSW 21:17:35 10° NW visible
